Content
SEND FEEDBACK

Daily
Averages
Monthly
Summary
United States of America

PAPUAA RESERVOIR, HAWAII


Home > North America > United States > Hawaii
Elevation: 1243 feet     Latitude: 22 02N     Longitude: 159 28W

WEATHER
 
SELECT A DAY
Number of Records: 225,036;   Date Range: 1/1/95 - 11/26/14
 
SHARE

PRINT THIS DATA

[ ← Previous Day ]
WEATHER ALMANAC - JANUARY 31, 2013
[ Next Day → ]
[ °C ]   °F
Weather ElementAverageHighLow
Temperature71.4 °F75.9 °F (10:53 am)66.2 °F (7:18 am)
Dewpoint62.9 °F64.9 °F (10:53 am)60.1 °F (11:53 pm)
Humidity74.8 %84 % (7:53 am)66 % (3:53 pm)
Barometer30.10 in30.14 in (9:20 am)30.06 in (4:53 am)
Wind Speed12.1 mph19.6 mph (8:53 pm)
Weather ElementAverage
Visibility10 mi
Wind DirectionSSE (162.3 °)

Weather ElementTotal
Precipitation---
Cooling Degree Days6.1 (Base 65)
Growing Degree Days21.1 (Base 50)
Averaged from 39 records on January 31, 2013
WEATHER CONDITIONS BREAKOUT
WIND DIRECTION BREAKOUT
WEATHER BY HOUR - JANUARY 31, 2013
[ °C ]   °F
Local TimeTemperatureDewpointHumidityBarometerVisibilityWind DirectionWind SpeedGust SpeedPrecipitationEventsConditions
12:44 AM71.6 °F62.6 °F73 %30.09 in10.0 miNE (40°)15.0 mphMostly Cloudy
12:53 AM71.1 °F63.0 °F75 %30.09 in10.0 miNE (40°)16.1 mphScattered Clouds
1:37 AM71.6 °F62.6 °F73 %30.09 in10.0 miNNE (30°)13.8 mphMostly Cloudy
1:53 AM70.0 °F63.0 °F78 %30.08 in10.0 miNorth (10°)8.1 mphScattered Clouds
2:14 AM69.8 °F62.6 °F78 %30.08 in10.0 miNorth (360°)8.1 mphMostly Cloudy
2:53 AM69.1 °F62.1 °F78 %30.07 in10.0 miNorth (350°)10.4 mphMostly Cloudy
3:53 AM69.1 °F62.1 °F78 %30.07 in10.0 miNorth (350°)6.9 mphMostly Cloudy
4:24 AM68.0 °F62.6 °F83 %30.07 in10.0 miNorth (360°)6.9 mphScattered Clouds
4:53 AM68.0 °F62.1 °F81 %30.06 in10.0 miNorth (350°)6.9 mphScattered Clouds
5:18 AM69.8 °F62.6 °F78 %30.07 in10.0 miNorth (360°)8.1 mphMostly Cloudy
5:53 AM68.0 °F62.1 °F81 %30.07 in10.0 miNorth (350°)6.9 mphScattered Clouds
6:05 AM68.0 °F62.6 °F83 %30.08 in10.0 miNorth (360°)6.9 mphMostly Cloudy
6:38 AM68.0 °F62.6 °F83 %30.09 in10.0 miNorth (350°)6.9 mphScattered Clouds
6:53 AM68.0 °F62.1 °F81 %30.09 in10.0 miNNW (340°)6.9 mphScattered Clouds
7:00 AM68.0 °F62.6 °F83 %30.10 in10.0 miNorth (360°)5.8 mphMostly Cloudy
7:18 AM66.2 °F60.8 °F83 %30.10 in10.0 miNNW (330°)4.6 mphScattered Clouds
7:53 AM66.9 °F62.1 °F84 %30.11 in10.0 miNW (320°)3.5 mphMostly Cloudy
8:08 AM71.6 °F64.4 °F78 %30.12 in10.0 miNorth (360°)4.6 mphMostly Cloudy
8:33 AM71.6 °F62.6 °F73 %30.13 in10.0 miNorth (360°)10.4 mphPartly Cloudy
8:53 AM72.0 °F64.0 °F76 %30.13 in10.0 miNorth (350°)8.1 mphScattered Clouds
9:02 AM73.4 °F64.4 °F73 %30.13 in10.0 miNorth (10°)8.1 mphMostly Cloudy
9:20 AM73.4 °F64.4 °F73 %30.14 in10.0 miNE (40°)12.7 mphScattered Clouds
9:53 AM73.9 °F63.0 °F68 %30.14 in10.0 miNNE (30°)12.7 mphClear
10:53 AM75.9 °F64.9 °F69 %30.14 in10.0 miNNE (30°)15.0 mphPartly Cloudy
11:53 AM75.9 °F64.0 °F67 %30.13 in10.0 miNNE (30°)15.0 mphClear
12:53 PM75.9 °F64.0 °F67 %30.11 in10.0 miNNE (20°)15.0 mphPartly Cloudy
1:53 PM75.9 °F64.0 °F67 %30.09 in10.0 miNNE (30°)16.1 mphScattered Clouds
2:19 PM73.4 °F64.4 °F73 %30.08 in10.0 miNNE (30°)18.4 mphMostly Cloudy
2:33 PM73.4 °F62.6 °F69 %30.08 in10.0 miNE (40°)17.3 mphOvercast
2:53 PM75.9 °F64.0 °F67 %30.08 in10.0 miNNE (30°)17.3 mphScattered Clouds
3:53 PM75.0 °F63.0 °F66 %30.08 in10.0 miNNE (20°)18.4 mphClear
4:53 PM73.0 °F62.1 °F68 %30.08 in10.0 miNNE (30°)16.1 mphScattered Clouds
5:53 PM72.0 °F62.1 °F71 %30.09 in10.0 miNNE (20°)16.1 mphScattered Clouds
6:53 PM72.0 °F63.0 °F73 %30.09 in10.0 miNNE (30°)16.1 mph0.00 inRainLight Rain
7:53 PM72.0 °F63.0 °F73 %30.11 in10.0 miNE (50°)15.0 mph0.00 inOvercast
8:53 PM72.0 °F64.0 °F76 %30.12 in10.0 miNE (40°)19.6 mphMostly Cloudy
9:53 PM71.1 °F63.0 °F75 %30.13 in10.0 miNE (40°)18.4 mphMostly Cloudy
10:53 PM71.1 °F62.1 °F73 %30.13 in10.0 miNE (40°)19.6 mphMostly Cloudy
11:53 PM71.1 °F60.1 °F68 %30.13 in10.0 miNE (40°)19.6 mphPartly Cloudy
Hourly data recorded from PHLI, located miles away from Papuaa Reservoir, Hawaii







STORIES FROM OUR PARTNERS